Regional Weather Roundup
Issued by NWS Green Bay, WI

Home | Current Version | Previous Version | Graphics & Text | Print | Product List | Glossary Off
Versions: 1 2 3 4 5 6 7 8 9 10 11 12 13 14 15 16 17 18 19 20 21 22 23 24 25 26 27 28 29 30 31 32 33 34 35 36 37 38 39 40 41 42 43 44 45 46 47 48 49 50

000
ASUS43 KGRB 010510
RWRGRB

NORTH-CENTRAL AND NORTHEAST WISCONSIN REGIONAL WEATHER ROUNDUP
NATIONAL WEATHER SERVICE GREEN BAY WI
1100 PM CST SAT JAN 31 2015

WIZ005-009-010>012-018-019-010600-
NORTH CENTRAL WISCONSIN

CITY           SKY/WX    TMP DP  RH WIND       PRES   REMARKS
IRONWOOD       CLOUDY    10   7  85 E9        30.28R WCI  -2
MANITOWISH WTR CLOUDY     8   2  78 NE6       30.25R WCI  -3
ARBOR VITAE    MOCLDY    11   3  70 NE5       30.24R WCI   3
EAGLE RIVER    CLOUDY     9   1  70 NE10      30.24R WCI  -6
LAND O LAKES   MOCLDY     6   1  80 NE5       30.26R WCI  -3
RHINELANDER    CLOUDY    10   2  69 NE8       30.23R WCI  -2
PHILLIPS       CLOUDY    10   3  71 NE12      30.23R WCI  -4
ANTIGO         CLOUDY    13   6  74 NE14      30.21R WCI  -3
TOMAHAWK       CLOUDY    13   6  73 NE5       30.23R WCI   5
MERRILL        CLOUDY    15   7  69 E9G16     30.23R WCI   3
$$

WIZ013-073-010600-
NORTHEAST WISCONSIN

CITY           SKY/WX    TMP DP  RH WIND       PRES   REMARKS
IRON MOUNTAIN  MOCLDY     7  -1  70 NW7       30.28F WCI  -5
MARINETTE      CLOUDY    12   1  62 NE10      30.30S WCI  -1
OCONTO         CLOUDY    15   5  65 MISG      30.30R
$$

WIZ017-030-035>037-045-010600-
CENTRAL WISCONSIN

CITY           SKY/WX    TMP DP  RH WIND       PRES   REMARKS
MEDFORD        CLOUDY    15   7  70 NE14      30.20R WCI   0
WAUSAU         CLOUDY    17   9  70 NE10G17   30.20R WCI   5
MOSINEE        CLOUDY    19  12  73 NE14      30.21R WCI   6
MARSHFIELD     CLOUDY    20  11  68 NE14      30.19R WCI   7
WISC RAPIDS    CLOUDY    25  16  68 E10       30.21R
STEVENS POINT  CLOUDY    22  14  72 E12       30.20R WCI  10
WAUPACA        CLOUDY    22  14  72 E8        30.24R
SHAWANO        CLOUDY    19  10  68 E14       30.28R WCI   6
CLINTONVILLE   CLOUDY    19  10  68 E17       30.26R WCI   4
$$

WIZ038-039-048-051-010600-
FOX VALLEY

CITY           SKY/WX    TMP DP  RH WIND       PRES   REMARKS
NWS GREEN BAY  FLURRIES  17  11  77 NE26G32   30.28R WCI  -2
APPLETON       CLOUDY    19  12  73 NE15G24   30.24R WCI   5
OSHKOSH        CLOUDY    22  15  75 NE15G23   30.22R WCI   9
FOND DU LAC    CLOUDY    24  17  74 NE15G23   30.22R
$$

WIZ022-050-052-010600-
EAST CENTRAL WISCONSIN

CITY           SKY/WX    TMP DP  RH WIND       PRES   REMARKS
STURGEON BAY   CLOUDY    14   3  62 N12G18    30.30R WCI   0
MANITOWOC      MIX PCPN  23  17  78 NE15G21   30.25R
SHEBOYGAN      CLOUDY    25  19  78 NE21G29   30.22R
$$

LMZ563-521-522-541>543-010600-
LAKESHORE

STATION/POSITION TIME  TEMP    WIND        PRES    VSBY  WAVE
                       AIR SEA DIR/SP/G                  HT/PER
                 (UTC) (F)     (DEG/KT/KT) (MB)    (MI)  (FT/S)
SHEBOYGAN LKSHOR 0500   27      40/ 26/ 28 1024.4R
KEWAUNEE LKSHORE 0500   20      20/ 16/ 25 1023.9R
NORTHPORT PIER   0500   15     350/ 18/ 22 1026.1F
SISTER BAY LKSHO 0400   14      10/ 14/ 18   N/A
CHAMBERS ISLAND  0500   13     340/ 18/ 23 1025.7F
MENOMINEE LKSHOR 0500   14     360/ 13     1026.8R
$$


USA.gov is the U.S. government's official web portal to all federal, state and local government web resources and services.